This is the latest recevied weather packets stored in our database for station/object KY4LEX. If no packets are shown the sender has not sent any weather packets the latest 10 day(s).
| Time | Temp. | Humidity | Pressure | Rain* | Wind** | Luminosity | Snow |
|---|---|---|---|---|---|---|---|
| 1777850603 | 16.11° C | 37% | 1020.5 hPa | 0 mm | - | 39 W/m² | - |
| 1777850301 | 16.11° C | 37% | 1020.5 hPa | 0 mm | - | 44 W/m² | - |
| 1777849998 | 16.67° C | 37% | 1020.4 hPa | 0 mm | - | 48 W/m² | - |
| 1777849694 | 16.67° C | 36% | 1020.6 hPa | 0 mm | - | 55 W/m² | - |
| 1777849391 | 16.67° C | 35% | 1020.6 hPa | 0 mm | - | 67 W/m² | - |
| 1777849089 | 16.67° C | 35% | 1020.5 hPa | 0 mm | - | 79 W/m² | - |
| 1777848784 | 17.22° C | 35% | 1020.4 hPa | 0 mm | - | 76 W/m² | - |
| 1777848481 | 17.22° C | 34% | 1020.8 hPa | 0 mm | - | 96 W/m² | - |
| 1777848178 | 17.78° C | 34% | 1021 hPa | 0 mm | - | 87 W/m² | - |
| 1777847876 | 17.78° C | 33% | 1020.9 hPa | 0 mm | - | 154 W/m² | - |
| 1777847573 | 17.78° C | 34% | 1020.8 hPa | 0 mm | - | 91 W/m² | - |
| 1777847269 | 17.22° C | 35% | 1020.9 hPa | 0 mm | - | 215 W/m² | - |
| 1777846967 | 17.22° C | 34% | 1020.9 hPa | 0 mm | - | 79 W/m² | - |
| 1777846666 | 17.78° C | 32% | 1021 hPa | 0 mm | - | 86 W/m² | - |
| 1777846363 | 17.78° C | 33% | 1021.4 hPa | 0 mm | - | 203 W/m² | - |
| 1777846059 | 17.78° C | 33% | 1021.2 hPa | 0 mm | - | 241 W/m² | - |
| 1777845756 | 17.22° C | 33% | 1021.4 hPa | 0 mm | - | 125 W/m² | - |
| 1777845453 | 18.33° C | 32% | 1020.9 hPa | 0 mm | - | 97 W/m² | - |
| 1777845150 | 18.33° C | 32% | 1020.8 hPa | 0 mm | - | 191 W/m² | - |
| 1777844848 | 17.78° C | 34% | 1020.9 hPa | 0 mm | - | 270 W/m² | - |
| 1777844545 | 18.33° C | 30% | 1020.9 hPa | 0 mm | - | 283 W/m² | - |
| 1777844243 | 18.33° C | 31% | 1021.3 hPa | 0 mm | - | 298 W/m² | - |
| 1777843940 | 18.33° C | 31% | 1021.3 hPa | 0 mm | - | 312 W/m² | - |
| 1777843636 | 17.78° C | 30% | 1021.6 hPa | 0 mm | - | 325 W/m² | - |
| 1777843334 | 17.78° C | 32% | 1021.4 hPa | 0 mm | - | 338 W/m² | - |
* Rain latest hour (hover to see other rain measurements)
** Current wind speed in m/s (hover to see current wind gust speed)